TimeCDT,TemperatureF,Dew PointF,Humidity,Sea Level PressureIn,VisibilityMPH,Wind Direction,Wind SpeedMPH,Gust SpeedMPH,PrecipitationIn,Events,Conditions,WindDirDegrees,DateUTC
12:03 AM,57.9,57.0,97,29.94,1.5,Calm,Calm,-,N/A,,Partly Cloudy,0,2014-03-29 05:03:00
12:05 AM,57.9,57.0,97,29.93,0.8,ESE,3.5,-,N/A,,Mist,120,2014-03-29 05:05:00
12:53 AM,57.0,55.9,96,29.88,0.2,Calm,Calm,-,N/A,Fog,Fog,0,2014-03-29 05:53:00
1:51 AM,55.4,55.4,100,29.89,2.0,NE,3.5,-,N/A,,Overcast,40,2014-03-29 06:51:00
1:53 AM,55.9,55.0,97,29.86,3.0,NE,3.5,-,N/A,,Overcast,50,2014-03-29 06:53:00
2:07 AM,55.0,54.0,96,29.89,1.5,Calm,Calm,-,N/A,,Mostly Cloudy,0,2014-03-29 07:07:00
2:16 AM,55.0,54.0,96,29.89,0.2,Calm,Calm,-,N/A,Fog,Fog,0,2014-03-29 07:16:00
2:45 AM,53.1,52.0,96,29.89,1.2,Calm,Calm,-,N/A,,Scattered Clouds,0,2014-03-29 07:45:00
2:48 AM,53.6,51.8,94,29.88,3.0,Calm,Calm,-,N/A,,Scattered Clouds,0,2014-03-29 07:48:00
2:53 AM,55.0,53.1,93,29.84,8.0,Calm,Calm,-,N/A,,Scattered Clouds,0,2014-03-29 07:53:00
3:34 AM,55.9,55.0,97,29.87,9.0,South,4.6,-,N/A,Thunderstorm,Thunderstorm,170,2014-03-29 08:34:00
3:53 AM,55.0,55.0,100,29.87,10.0,West,5.8,-,N/A,Thunderstorm,Thunderstorm,270,2014-03-29 08:53:00
4:11 AM,57.0,57.0,100,29.96,2.5,SSW,8.1,-,0.11,Rain-Thunderstorm,Thunderstorms and Rain,210,2014-03-29 09:11:00
4:22 AM,57.9,57.0,97,29.97,3.0,Variable,5.8,-,0.15,Rain-Thunderstorm,Thunderstorms and Rain,0,2014-03-29 09:22:00
4:40 AM,57.9,57.9,100,30.00,2.0,Variable,5.8,-,0.25,Rain-Thunderstorm,Heavy Thunderstorms and Rain,0,2014-03-29 09:40:00
4:53 AM,57.9,57.9,100,29.96,2.5,SW,6.9,-,0.32,Rain-Thunderstorm,Heavy Thunderstorms and Rain,230,2014-03-29 09:53:00
5:01 AM,57.9,57.9,100,30.01,3.0,Variable,4.6,-,0.03,Rain-Thunderstorm,Thunderstorms and Rain,0,2014-03-29 10:01:00
5:27 AM,59.0,57.9,96,30.00,3.0,SSW,9.2,-,0.16,Rain,Heavy Rain,200,2014-03-29 10:27:00
5:53 AM,57.9,57.9,100,29.90,4.0,SSE,10.4,-,0.27,Rain,Rain,150,2014-03-29 10:53:00
6:53 AM,59.0,57.9,96,29.86,10.0,South,6.9,-,0.09,,Scattered Clouds,170,2014-03-29 11:53:00
7:53 AM,60.1,57.9,93,29.58,10.0,SSW,4.6,-,N/A,,Clear,210,2014-03-29 12:53:00
8:53 AM,62.1,60.1,93,29.59,10.0,SW,6.9,-,N/A,,Mostly Cloudy,220,2014-03-29 13:53:00
9:53 AM,66.9,59.0,76,29.57,10.0,SW,10.4,18.4,N/A,,Clear,230,2014-03-29 14:53:00
10:25 AM,68.0,57.9,70,29.91,10.0,West,15.0,20.7,N/A,,Mostly Cloudy,270,2014-03-29 15:25:00
10:53 AM,68.0,57.0,68,29.58,10.0,WNW,8.1,23.0,N/A,,Mostly Cloudy,290,2014-03-29 15:53:00
11:12 AM,68.0,57.0,68,29.91,10.0,West,9.2,-,N/A,,Mostly Cloudy,270,2014-03-29 16:12:00
11:39 AM,68.0,55.0,63,29.92,10.0,WNW,13.8,23.0,N/A,,Mostly Cloudy,300,2014-03-29 16:39:00
11:53 AM,69.1,55.0,61,29.59,10.0,West,13.8,20.7,N/A,,Overcast,280,2014-03-29 16:53:00
12:53 PM,68.0,54.0,61,29.59,10.0,West,11.5,24.2,N/A,,Overcast,280,2014-03-29 17:53:00
1:53 PM,69.1,54.0,58,29.58,10.0,WNW,12.7,20.7,N/A,,Overcast,290,2014-03-29 18:53:00
2:53 PM,69.1,55.0,61,29.58,10.0,WNW,8.1,-,N/A,,Overcast,290,2014-03-29 19:53:00
3:53 PM,69.1,54.0,58,29.57,10.0,Variable,5.8,-,N/A,,Mostly Cloudy,0,2014-03-29 20:53:00
4:53 PM,72.0,52.0,49,29.57,10.0,WNW,9.2,20.7,N/A,,Mostly Cloudy,300,2014-03-29 21:53:00
5:53 PM,66.9,48.9,52,29.62,10.0,NNW,12.7,24.2,N/A,,Clear,330,2014-03-29 22:53:00
6:53 PM,63.0,46.9,56,29.64,10.0,WNW,9.2,-,N/A,,Clear,300,2014-03-29 23:53:00
7:53 PM,61.0,46.0,58,29.68,10.0,WNW,6.9,-,N/A,,Clear,300,2014-03-30 00:53:00
8:53 PM,59.0,46.0,62,29.71,10.0,WNW,8.1,-,N/A,,Clear,300,2014-03-30 01:53:00
9:53 PM,57.0,43.0,59,29.74,10.0,NNW,10.4,-,N/A,,Mostly Cloudy,330,2014-03-30 02:53:00
10:53 PM,55.0,42.1,62,29.76,10.0,NNW,10.4,-,N/A,,Scattered Clouds,330,2014-03-30 03:53:00
11:53 PM,53.1,39.0,59,29.78,10.0,NNW,11.5,19.6,N/A,,Partly Cloudy,330,2014-03-30 04:53:00